Location: Nicosia
(35.1670°N, 33.3670°E)
Time: 08:55:25
(UTC+02:00)

Tiangong - Visible Passes

Search period start: 08 February 2023 00:00
Search period end: 18 February 2023 00:00
Orbit: 382 x 386 km, 41.5° (Epoch: 07 February)

Date Brightness Start Highest point End Pass type
(mag) Time Alt. Az. Time Alt. Az. Time Alt. Az.
11 Feb 0.8 06:01:02 10° S 06:03:08 17° SE 06:05:14 10° E visible
13 Feb -0.4 05:36:23 10° SSW 05:39:13 30° SSE 05:42:03 10° E visible
14 Feb 0.5 04:38:46 16° SSE 04:38:57 16° SE 04:41:00 10° ESE visible
15 Feb -1.7 05:13:48 34° SW 05:14:55 59° SSE 05:18:02 10° ENE visible
16 Feb 1.0 04:16:24 15° E 04:16:24 15° E 04:17:11 10° E visible
16 Feb -1.7 05:48:34 14° W 05:51:04 46° NNW 05:54:06 10° ENE visible
17 Feb -1.5 04:50:55 51° NE 04:50:55 51° NE 04:53:25 10° ENE visible
